Jefferson, NC

9:07 AM EST on December 08, 2019 (GMT -0500)
Ashe County

Weather History for KGEV - November, 2019

Change the Weather History Date:

Friday, November 15, 2019

  Actual Average Record
Temperature  
Mean Temperature 40 °F -  
Max Temperature 48 °F 54 °F 74 °F (1993)
Min Temperature 33 °F 31 °F 9 °F (1969)
Degree Days  
Heating Degree Days 24    
Moisture  
Dew Point 20 °F    
Average Humidity 46    
Maximum Humidity 63    
Minimum Humidity 31    
Precipitation  
Precipitation 0.00 in - - ()
Sea Level Pressure  
Sea Level Pressure 30.16 in    
Wind  
Wind Speed 2 mph ()    
Max Wind Speed 9 mph    
Max Gust Speed -    
Visibility 10.0 miles    
Events      
Averages and records for this station are not official NWS values.
T = Trace of Precipitation, MM = Missing Value Source: Averaged Metar Reports

Daily Weather History Graph

Daily Weather History Graph

Search for Another Location

Airport or City:

Astronomy

Nov. 15, 2019 Rise Set
Actual Time 7:02 AM EST 5:17 PM EST
Civil Twilight 6:35 AM EST 5:44 PM EST
Nautical Twilight 6:04 AM EST 6:15 PM EST
Astronomical Twilight 5:33 AM EST 6:46 PM EST
Moon 7:54 PM EST (11/15) 9:55 AM EST (11/15)
Length of Visible Light 11h 09m
Length of Day
10h 14m
Waning Gibbous, 90% of the Moon is Illuminated
Nov 15
Waning Gibbous
Nov 19
Last Quarter
Nov 26
New
Dec 4
First Quarter
Dec 12
Full

Hourly Weather History & Observations

Time (EST) Temp. Windchill Dew Point Humidity Pressure Visibility Wind Dir Wind Speed Gust Speed Precip Events Conditions
12:35 AM 35.4 °F - 17.1 °F 47% 30.22 in 10.0 mi Calm Calm - N/A   Overcast
12:55 AM 33.8 °F - 20.8 °F 59% 30.22 in 10.0 mi Calm Calm - N/A   Overcast
1:15 AM 35.1 °F - 17.4 °F 49% 30.22 in 10.0 mi Calm Calm - N/A   Overcast
1:35 AM 33.1 °F - 21.7 °F 63% 30.22 in 10.0 mi Calm Calm - N/A   Overcast
1:55 AM 33.8 °F 30.8 °F 19.6 °F 56% 30.21 in 10.0 mi NW 3.5 mph - N/A   Overcast
2:15 AM 36.3 °F - 15.8 °F 43% 30.21 in 10.0 mi Calm Calm - N/A   Overcast
2:35 AM 33.3 °F - 19.2 °F 56% 30.21 in 10.0 mi Calm Calm - N/A   Overcast
2:55 AM 35.2 °F - 17.8 °F 49% 30.20 in 10.0 mi Calm Calm - N/A   Scattered Clouds
3:15 AM 34.0 °F - 17.8 °F 52% 30.19 in 10.0 mi Calm Calm - N/A   Clear
3:55 AM 34.2 °F - 17.8 °F 51% 30.18 in 10.0 mi Calm Calm - N/A   Clear
4:15 AM 34.5 °F - 18.1 °F 51% 30.18 in 10.0 mi Calm Calm - N/A   Clear
4:35 AM 34.3 °F - 18.5 °F 52% 30.18 in 10.0 mi Calm Calm - N/A   Clear
4:55 AM 34.5 °F - 18.3 °F 52% 30.17 in 10.0 mi Calm Calm - N/A   Clear
5:15 AM 34.7 °F - 18.3 °F 51% 30.18 in 10.0 mi Calm Calm - N/A   Clear
5:35 AM 33.4 °F - 19.0 °F 56% 30.18 in 10.0 mi Calm Calm - N/A   Clear
5:55 AM 34.2 °F 30.0 °F 20.3 °F 57% 30.18 in 10.0 mi NNW 4.6 mph - N/A   Clear
6:15 AM 34.3 °F 30.2 °F 20.3 °F 57% 30.17 in 10.0 mi North 4.6 mph - N/A   Clear
6:35 AM 35.6 °F - 19.6 °F 52% 30.18 in 10.0 mi Calm Calm - N/A   Clear
6:55 AM 35.8 °F 33.0 °F 17.2 °F 47% 30.18 in 10.0 mi NNE 3.5 mph - N/A   Clear
7:15 AM 35.6 °F 32.8 °F 16.5 °F 46% 30.19 in 10.0 mi North 3.5 mph - N/A   Clear
7:35 AM 34.3 °F 31.4 °F 17.6 °F 50% 30.19 in 10.0 mi NNW 3.5 mph - N/A   Clear
7:55 AM - - - N/A% 30.20 in - North 3.5 mph - N/A   Unknown
8:35 AM 35.8 °F 33.0 °F 20.5 °F 54% 30.21 in 10.0 mi NNW 3.5 mph - N/A   Clear
9:15 AM 39.2 °F 37.0 °F 18.1 °F 43% 30.20 in 10.0 mi North 3.5 mph - N/A   Clear
9:35 AM 39.6 °F 37.4 °F 18.3 °F 42% 30.21 in 10.0 mi North 3.5 mph - N/A   Clear
9:55 AM 40.3 °F 35.5 °F 12.6 °F 32% 30.20 in 10.0 mi North 6.9 mph - N/A   Clear
10:15 AM 41.9 °F 40.0 °F 14.5 °F 33% 30.20 in 10.0 mi North 3.5 mph - N/A   Clear
10:35 AM 41.5 °F 39.6 °F 14.5 °F 33% 30.20 in 10.0 mi North 3.5 mph - N/A   Clear
10:55 AM 41.9 °F 40.0 °F 14.7 °F 33% 30.19 in 10.0 mi NNE 3.5 mph - N/A   Clear
11:15 AM 42.8 °F 41.1 °F 14.2 °F 31% 30.20 in 10.0 mi NNE 3.5 mph - N/A   Clear
11:35 AM 43.3 °F 40.7 °F 14.4 °F 31% 30.19 in 10.0 mi North 4.6 mph - N/A   Clear
11:55 AM 43.5 °F - 14.4 °F 31% 30.19 in 10.0 mi Calm Calm - N/A   Clear
12:15 PM 43.9 °F - 16.2 °F 33% 30.19 in 10.0 mi Calm Calm - N/A   Clear
12:55 PM 45.5 °F 43.2 °F 16.2 °F 31% 30.16 in 10.0 mi North 4.6 mph - N/A   Clear
1:15 PM 45.9 °F 42.9 °F 17.6 °F 32% 30.14 in 10.0 mi North 5.8 mph - N/A   Clear
1:35 PM 47.1 °F - 19.4 °F 33% 30.13 in 10.0 mi NNE 4.6 mph - N/A   Clear
2:35 PM 48.4 °F - 19.4 °F 32% 30.13 in 10.0 mi NNW 5.8 mph - N/A   Clear
2:55 PM 47.7 °F - 20.5 °F 34% 30.11 in 10.0 mi North 5.8 mph - N/A   Clear
3:15 PM 47.7 °F - 19.4 °F 33% 30.11 in 10.0 mi North 4.6 mph - N/A   Clear
3:35 PM 47.3 °F - 19.8 °F 34% 30.11 in 10.0 mi North 5.8 mph - N/A   Clear
3:55 PM 46.9 °F - 20.8 °F 36% 30.11 in 10.0 mi North 4.6 mph - N/A   Clear
4:15 PM 48.2 °F - 21.6 °F 35% 30.11 in 10.0 mi NNW 3.5 mph - N/A   Clear
4:35 PM 47.3 °F - 22.6 °F 38% 30.11 in 10.0 mi North 4.6 mph - N/A   Clear
4:55 PM 46.6 °F - 23.7 °F 41% 30.11 in 10.0 mi North 4.6 mph - N/A   Clear
5:15 PM 45.5 °F 43.2 °F 23.9 °F 43% 30.11 in 10.0 mi NNW 4.6 mph - N/A   Clear
5:35 PM 44.6 °F 41.4 °F 23.9 °F 44% 30.11 in 10.0 mi NNW 5.8 mph - N/A   Clear
5:55 PM 44.1 °F 39.5 °F 23.9 °F 45% 30.12 in 10.0 mi NNW 8.1 mph - N/A   Clear
6:15 PM 43.3 °F 39.2 °F 23.9 °F 46% 30.13 in 10.0 mi North 6.9 mph - N/A   Clear
6:35 PM 43.0 °F 40.3 °F 23.5 °F 46% 30.13 in 10.0 mi NNW 4.6 mph - N/A   Clear
6:55 PM 42.1 °F 38.4 °F 23.4 °F 48% 30.13 in 10.0 mi NNW 5.8 mph - N/A   Clear
7:15 PM 41.9 °F 37.5 °F 23.5 °F 48% 30.13 in 10.0 mi NNW 6.9 mph - N/A   Clear
7:35 PM 41.9 °F 38.2 °F 23.7 °F 49% 30.13 in 10.0 mi North 5.8 mph - N/A   Clear
8:15 PM 40.3 °F 37.1 °F 23.9 °F 52% 30.14 in 10.0 mi North 4.6 mph - N/A   Clear
8:35 PM 40.1 °F 34.7 °F 23.9 °F 52% 30.15 in 10.0 mi NNW 8.1 mph - N/A   Clear
8:55 PM 39.4 °F 33.8 °F 23.9 °F 54% 30.14 in 10.0 mi NNW 8.1 mph - N/A   Clear
9:15 PM 38.8 °F 33.8 °F 23.9 °F 55% 30.15 in 10.0 mi NNW 6.9 mph - N/A   Clear
9:35 PM 38.5 °F 32.1 °F 23.9 °F 56% 30.14 in 10.0 mi NNW 9.2 mph - N/A   Clear
9:55 PM 38.3 °F 33.9 °F 23.9 °F 56% 30.15 in 10.0 mi North 5.8 mph - N/A   Clear
10:15 PM 37.8 °F 32.5 °F 23.9 °F 57% 30.15 in 10.0 mi NNW 6.9 mph - N/A   Clear
10:35 PM 37.6 °F 31.6 °F 23.9 °F 58% 30.14 in 10.0 mi NNW 8.1 mph - N/A   Clear
10:55 PM 37.6 °F 34.0 °F 23.7 °F 57% 30.14 in 10.0 mi NNW 4.6 mph - N/A   Clear
11:15 PM 36.5 °F 33.9 °F 23.7 °F 60% 30.13 in 10.0 mi North 3.5 mph - N/A   Clear
11:35 PM 36.7 °F 32.0 °F 23.5 °F 59% 30.13 in 10.0 mi North 5.8 mph - N/A   Clear
11:55 PM 36.1 °F 33.5 °F 23.4 °F 60% 30.11 in 10.0 mi North 3.5 mph - N/A   Clear